Temp
-1 -1 -1 -1 -1 -1 -1 -1 -1 -1 -1 -1 -0 1 1 1 2 3 3 2 3 4 9 12 15 15 13 12 8 10 11 10 10 9 8 7 7 10 11 12 9 9 7 5 6 7 9 16 15 12 11 13 13 13
-1 -1 -1 -1 -1 -1 -1 -0 -1 -1 0 1 1 1 1 2 3 4 2 4 3 4 6 9 13 14 15 15 11 11 12 10 13 10 8 6 8 5 9 9 13 9 9 8 9 8 12 14 12 12 12 12 12 12
-1 -1 -1 -1 -1 -1 -1 -0 -1 0 0 0 1 1 2 2 3 1 2 2 3 4 5 6 11 14 15 14 16 12 12 13 16 16 9 7 7 6 6 7 12 14 15 11 11 13 12 10 11 11 11 10 10 10
-0 -1 -1 -1 -1 -1 -1 -1 -0 0 0 1 1 1 1 1 1 1 1 2 4 4 2 8 10 11 13 13 16 16 15 16 16 16 7 4 6 12 6 10 9 11 13 12 11 10 9 9 9 9 9 9 9 8
-1 -1 -1 -1 -1 -1 -0 -0 -0 -0 -0 0 0 -0 1 0 1 1 1 3 5 4 7 8 11 11 11 12 13 14 14 16 15 9 4 6 10 8 7 7 6 13 11 7 6 9 8 7 7 8 8 6 6 7
-0 -0 -1 -0 -0 -1 -0 -0 -0 -0 0 1 1 1 1 2 2 2 3 5 5 4 7 6 9 11 12 12 15 13 14 15 13 11 8 11 11 10 4 4 10 10 10 11 9 9 7 6 6 6 6 5 4 4
-1 -1 -0 -1 -1 -1 -1 -1 -0 0 1 1 2 2 2 3 3 4 6 7 7 7 9 5 6 10 10 11 12 11 13 11 12 9 9 9 10 8 3 5 9 9 9 8 8 7 5 5 2 3 4 2 2 2
3 3 2 1 1 0 0 1 2 3 3 2 3 2 3 4 4 5 7 8 9 9 9 5 4 7 9 9 8 9 10 9 7 7 8 6 7 8 4 7 9 8 7 7 7 8 5 2 2 1 1 1 1 0
4 4 4 4 3 3 3 3 4 4 4 4 4 4 5 5 6 8 9 10 11 11 4 4 5 6 8 6 7 8 8 5 7 3 6 6 4 5 7 6 7 7 6 4 4 3 2 2 1 -0 0 -0 -1 -1
6 6 6 5 5 5 5 5 5 5 6 5 6 6 7 7 9 9 10 11 10 8 5 3 6 5 6 5 5 5 6 3 4 4 7 3 3 3 4 5 5 5 5 4 3 2 1 1 0 -0 -1 -1 -1 -0
6 6 6 7 6 6 6 6 6 6 6 6 6 6 7 8 9 9 7 6 7 2 5 5 6 5 6 3 3 5 3 2 3 3 3 3 3 3 3 3 4 4 4 3 3 2 1 1 0 -0 -1 -0 -1 -1
4 5 5 6 6 6 6 6 6 7 8 8 6 7 7 8 8 3 2 3 2 3 3 3 4 4 6 6 3 4 4 1 4 5 4 3 2 2 2 3 3 3 3 2 2 1 1 0 -0 -0 -1 -2 -2 -2
5 5 5 5 5 5 6 7 7 7 8 9 9 8 7 4 3 3 2 3 3 2 3 4 2 4 4 4 4 3 5 2 5 5 5 2 1 2 2 2 2 1 1 1 0 0 -0 -1 -1 -1 -2 -3 -3 -3
5 6 6 6 6 6 7 7 8 9 10 8 4 2 2 3 1 0 1 1 0 2 3 3 3 2 3 2 1 4 2 4 5 4 3 1 1 1 1 1 1 -0 -0 -0 -0 -1 -1 -1 -2 -3 -3 -3 -3 -3
5 5 6 7 7 7 8 8 8 9 6 2 2 1 0 -1 -1 -1 -0 0 1 2 3 3 2 3 1 2 1 2 3 4 3 2 1 0 0 0 -0 -0 -1 -1 -1 -2 -1 -1 -2 -2 -2 -3 -4 -4 -4 -4
5 5 5 5 6 7 7 8 7 6 2 -0 -1 0 -0 0 -0 -1 -0 -0 1 2 3 4 1 2 2 2 4 3 2 2 2 0 -0 0 0 -1 -1 -2 -2 -2 -3 -2 -2 -3 -3 -4 -4 -4 -5 -5 -4 -5
6 3 3 4 5 6 6 6 5 0 -1 -1 -1 -2 -1 -1 -2 -2 -1 -0 1 1 1 1 2 2 1 3 2 1 1 0 -1 -1 -0 -0 -1 -2 -2 -3 -2 -3 -3 -3 -3 -4 -4 -5 -5 -5 -5 -7 -7 -7
4 3 4 4 5 6 6 3 1 -1 -2 -2 -2 -2 -2 -2 -2 -1 -1 -0 1 1 1 1 2 2 2 2 1 -1 -2 -1 -1 -1 -1 -1 -2 -2 -3 -2 -3 -3 -3 -4 -4 -5 -5 -6 -6 -6 -6 -7 -8 -8
4 4 5 5 5 4 1 0 0 -2 -2 -2 -2 -2 -2 -2 -1 -1 -1 -0 -0 -0 0 -0 -1 -1 -1 -2 -1 -2 -2 -2 -2 -2 -2 -2 -2 -2 -3 -3 -3 -3 -4 -5 -5 -5 -6 -6 -6 -7 -7 -7 -7 -8
4 4 5 5 5 2 -0 -1 -0 -1 -2 -2 -2 -2 -2 -2 -2 -2 -2 -2 -2 -2 -3 -3 -3 -4 -4 -3 -2 -2 -2 -2 -2 -2 -3 -2 -2 -3 -3 -3 -4 -5 -6 -6 -6 -7 -7 -7 -8 -8 -8 -8 -8 -10
4 4 5 5 1 -0 -1 -1 -1 -2 -2 -2 -2 -2 -2 -2 -2 -3 -3 -2 -3 -4 -3 -4 -5 -5 -4 -3 -2 -2 -2 -2 -2 -3 -4 -4 -4 -4 -5 -6 -6 -7 -7 -7 -7 -8 -8 -8 -8 -9 -9 -9 -10 -12
3 4 3 2 -0 -1 -1 -1 -1 -1 -1 -2 -1 -1 -1 -2 -2 -2 -3 -4 -5 -5 -5 -5 -6 -6 -5 -5 -4 -4 -3 -3 -3 -4 -4 -5 -6 -6 -7 -7 -7 -7 -8 -9 -9 -9 -9 -9 -10 -10 -11 -11 -12 -13
3 2 1 -1 -1 -2 -2 -1 -1 -0 -3 -1 -0 -1 -2 -2 -3 -2 -4 -5 -6 -6 -6 -6 -6 -6 -6 -6 -6 -6 -5 -5 -5 -5 -6 -6 -7 -7 -8 -8 -9 -9 -10 -11 -11 -10 -10 -10 -11 -11 -11 -12 -14 -14
2 -1 -2 -2 -3 -3 -2 -1 -1 -1 -1 -2 -3 -3 -4 -3 -2 -3 -6 -7 -8 -7 -7 -7 -6 -8 -7 -7 -8 -8 -8 -7 -8 -8 -8 -8 -8 -9 -9 -10 -10 -11 -12 -12 -12 -12 -12 -12 -12 -13 -13 -14 -15 -17
-2 -4 -3 -5 -2 -2 -5 -2 -2 -4 -5 -4 -4 -5 -4 -2 -5 -6 -6 -8 -10 -9 -9 -8 -8 -9 -10 -10 -10 -10 -9 -9 -9 -9 -10 -11 -10 -11 -11 -12 -12 -13 -13 -12 -12 -12 -12 -13 -13 -14 -15 -16 -18 -18
-4 -5 -4 -4 -4 -3 -3 -3 -4 -5 -5 -7 -4 -3 -3 -5 -7 -8 -8 -10 -11 -11 -11 -10 -10 -10 -10 -11 -11 -10 -11 -11 -10 -10 -11 -11 -11 -12 -12 -13 -13 -13 -12 -12 -13 -13 -14 -14 -15 -16 -17 -18 -19 -19
-4 -4 -4 -4 -4 -3 -3 -2 -2 -5 -7 -6 -5 -5 -4 -7 -9 -9 -11 -11 -12 -12 -11 -11 -11 -12 -12 -13 -12 -12 -12 -12 -12 -12 -12 -12 -12 -12 -13 -13 -13 -14 -14 -14 -14 -14 -15 -16 -17 -18 -18 -19 -19 -20
-5 -4 -4 -4 -4 -3 -4 -4 -5 -6 -5 -6 -5 -9 -9 -10 -11 -11 -12 -12 -12 -12 -12 -12 -12 -12 -13 -13 -13 -13 -13 -13 -14 -14 -14 -13 -14 -14 -14 -14 -14 -14 -15 -16 -17 -18 -18 -18 -19 -19 -19 -20 -20 -20
-5 -4 -4 -5 -4 -5 -6 -5 -6 -7 -8 -7 -8 -10 -11 -13 -13 -13 -13 -12 -12 -13 -13 -13 -14 -14 -14 -14 -14 -14 -14 -14 -14 -14 -14 -15 -16 -15 -16 -16 -17 -18 -18 -18 -19 -20 -20 -21 -21 -21 -21 -21 -21 -22
-5 -4 -3 -4 -5 -6 -7 -7 -8 -9 -9 -9 -11 -13 -14 -15 -15 -14 -14 -14 -14 -14 -15 -15 -15 -14 -15 -15 -15 -14 -14 -14 -15 -15 -15 -16 -16 -16 -17 -18 -18 -18 -19 -19 -20 -20 -20 -21 -21 -22 -22 -22 -22 -22
-6 -5 -4 -5 -7 -7 -8 -8 -8 -9 -9 -10 -10 -12 -15 -15 -15 -15 -15 -15 -15 -15 -15 -16 -15 -15 -15 -15 -15 -16 -16 -16 -15 -16 -16 -17 -17 -18 -18 -18 -19 -19 -20 -21 -22 -21 -22 -22 -22 -22 -23 -23 -23 -23
-6 -6 -5 -8 -7 -8 -8 -7 -7 -8 -9 -10 -11 -12 -13 -13 -16 -16 -16 -16 -16 -16 -17 -17 -16 -16 -16 -16 -17 -17 -17 -17 -17 -18 -18 -17 -18 -18 -19 -19 -19 -20 -20 -20 -21 -21 -22 -22 -23 -23 -23 -23 -23 -23
-6 -6 -6 -6 -7 -7 -8 -8 -7 -9 -10 -11 -12 -12 -13 -15 -16 -17 -18 -17 -17 -17 -17 -17 -17 -18 -18 -18 -18 -18 -18 -19 -19 -19 -19 -19 -19 -19 -20 -20 -20 -20 -21 -21 -21 -22 -22 -23 -23 -23 -24 -24 -23 -23
Height
1223 1233 1243 1252 1263 1273 1282 1291 1298 1307 1316 1325 1334 1342 1351 1360 1370 1377 1382 1390 1393 1395 1382 1384 1391 1390 1393 1399 1411 1417 1425 1436 1436 1436 1446 1452 1459 1452 1457 1454 1465 1474 1487 1497 1495 1498 1493 1460 1463 1473 1475 1473 1474 1476
1230 1238 1246 1255 1264 1274 1283 1292 1300 1308 1317 1325 1333 1342 1351 1360 1370 1375 1381 1385 1394 1401 1389 1388 1383 1380 1383 1391 1399 1412 1414 1427 1420 1426 1434 1444 1453 1458 1454 1468 1449 1467 1462 1472 1472 1476 1460 1459 1464 1467 1469 1472 1475 1475
1236 1243 1251 1259 1267 1276 1285 1293 1301 1310 1318 1326 1334 1342 1349 1356 1363 1370 1380 1388 1396 1400 1392 1393 1383 1382 1381 1387 1398 1405 1413 1421 1412 1409 1423 1439 1451 1449 1463 1459 1449 1446 1446 1456 1459 1457 1460 1463 1465 1466 1469 1471 1473 1475
1241 1247 1254 1262 1271 1279 1287 1295 1302 1309 1318 1325 1333 1341 1348 1357 1363 1370 1378 1385 1396 1401 1401 1389 1385 1384 1383 1394 1390 1393 1400 1407 1405 1409 1421 1437 1445 1436 1452 1444 1447 1446 1445 1450 1457 1462 1462 1467 1467 1468 1470 1471 1473 1475
1247 1253 1259 1266 1273 1281 1289 1296 1303 1310 1317 1324 1332 1340 1349 1357 1364 1368 1377 1382 1390 1399 1387 1378 1373 1378 1384 1389 1394 1394 1403 1399 1403 1412 1423 1432 1430 1436 1440 1441 1449 1442 1445 1456 1463 1456 1457 1469 1469 1469 1470 1472 1475 1476
1254 1258 1263 1269 1275 1282 1288 1294 1300 1306 1315 1324 1331 1341 1348 1358 1362 1368 1380 1375 1375 1384 1377 1371 1378 1380 1384 1386 1384 1393 1403 1402 1403 1409 1419 1425 1428 1432 1448 1456 1446 1445 1444 1445 1451 1454 1457 1465 1468 1470 1471 1474 1475 1477
1255 1259 1264 1268 1275 1280 1284 1291 1296 1304 1312 1322 1330 1341 1344 1350 1358 1364 1373 1370 1366 1372 1374 1383 1391 1391 1392 1390 1392 1396 1405 1403 1405 1413 1421 1425 1428 1431 1441 1449 1444 1446 1447 1449 1452 1454 1462 1465 1468 1471 1472 1474 1476 1478
1257 1259 1263 1268 1274 1278 1283 1290 1297 1305 1311 1319 1326 1337 1347 1358 1367 1372 1366 1365 1363 1364 1366 1382 1393 1395 1394 1394 1397 1400 1404 1407 1410 1418 1424 1427 1430 1432 1444 1440 1442 1445 1448 1451 1453 1454 1459 1465 1469 1472 1474 1476 1478 1482
1265 1267 1271 1276 1280 1286 1291 1297 1304 1311 1320 1326 1332 1342 1353 1360 1361 1363 1364 1363 1363 1366 1374 1385 1393 1400 1399 1401 1402 1403 1405 1414 1420 1423 1425 1430 1437 1440 1438 1439 1443 1446 1447 1452 1455 1459 1463 1466 1471 1475 1477 1480 1481 1484
1275 1276 1280 1285 1289 1294 1300 1306 1312 1318 1324 1332 1344 1347 1347 1351 1355 1358 1361 1361 1364 1370 1378 1389 1393 1399 1401 1403 1408 1412 1413 1419 1424 1427 1426 1432 1441 1441 1441 1442 1444 1447 1449 1452 1455 1462 1465 1469 1473 1477 1479 1482 1484 1485
1292 1290 1290 1293 1298 1304 1308 1314 1320 1327 1335 1340 1344 1349 1354 1356 1358 1361 1365 1371 1374 1383 1388 1393 1394 1395 1398 1401 1406 1410 1415 1417 1426 1428 1429 1434 1438 1441 1443 1443 1446 1449 1452 1455 1457 1461 1465 1468 1473 1476 1480 1482 1484 1486
1308 1308 1305 1307 1310 1314 1319 1323 1329 1335 1338 1342 1348 1355 1360 1364 1366 1370 1381 1382 1385 1391 1391 1392 1394 1395 1397 1399 1403 1410 1414 1417 1424 1422 1429 1434 1439 1439 1442 1444 1447 1449 1452 1456 1459 1463 1468 1471 1474 1477 1480 1482 1484 1486
1321 1320 1321 1322 1325 1329 1333 1336 1338 1342 1344 1348 1352 1359 1363 1371 1376 1380 1387 1385 1387 1390 1392 1391 1395 1397 1400 1401 1405 1410 1413 1426 1419 1424 1426 1435 1437 1441 1443 1445 1449 1452 1454 1457 1462 1466 1470 1473 1476 1478 1480 1483 1485 1486
1329 1330 1331 1333 1334 1337 1340 1343 1344 1346 1347 1348 1355 1367 1374 1379 1387 1388 1388 1389 1391 1391 1391 1390 1396 1401 1403 1405 1409 1411 1421 1419 1422 1427 1430 1435 1437 1442 1445 1448 1451 1455 1457 1462 1466 1470 1473 1475 1477 1480 1482 1484 1485 1486
1337 1337 1338 1339 1340 1342 1344 1346 1348 1348 1349 1359 1367 1382 1388 1392 1392 1392 1391 1392 1393 1393 1393 1396 1401 1405 1406 1408 1412 1418 1422 1420 1423 1428 1430 1433 1438 1443 1446 1450 1453 1457 1461 1466 1469 1472 1474 1476 1478 1480 1482 1484 1485 1485
1343 1343 1343 1345 1346 1347 1347 1349 1351 1352 1364 1375 1384 1390 1392 1393 1396 1396 1396 1396 1397 1397 1398 1401 1403 1406 1409 1411 1411 1414 1420 1423 1426 1428 1430 1435 1439 1443 1448 1452 1456 1460 1464 1468 1471 1473 1475 1477 1479 1480 1482 1483 1483 1483
1347 1348 1351 1352 1352 1352 1353 1355 1360 1371 1383 1391 1398 1397 1398 1400 1402 1401 1401 1400 1400 1401 1402 1402 1405 1411 1412 1413 1418 1422 1425 1428 1429 1431 1433 1436 1440 1445 1450 1454 1458 1462 1465 1469 1471 1474 1476 1477 1478 1480 1481 1482 1481 1481
1354 1356 1356 1357 1357 1357 1358 1363 1375 1387 1397 1402 1403 1404 1403 1403 1404 1403 1402 1400 1400 1401 1404 1407 1409 1412 1417 1418 1423 1429 1430 1431 1432 1433 1436 1440 1444 1449 1453 1456 1460 1463 1466 1469 1472 1474 1476 1477 1478 1479 1480 1481 1480 1479
1361 1361 1360 1359 1358 1359 1368 1379 1385 1396 1405 1406 1408 1408 1407 1408 1408 1408 1406 1405 1404 1404 1408 1414 1422 1427 1431 1432 1431 1431 1432 1434 1435 1438 1442 1445 1448 1452 1455 1458 1461 1464 1467 1470 1472 1473 1475 1476 1477 1478 1478 1478 1477 1476
1366 1365 1363 1361 1361 1365 1379 1390 1393 1400 1409 1413 1413 1412 1413 1415 1414 1413 1412 1411 1410 1414 1424 1433 1439 1440 1437 1435 1435 1435 1437 1439 1440 1443 1447 1450 1453 1455 1458 1460 1462 1465 1467 1470 1471 1472 1473 1474 1475 1476 1475 1475 1474 1474
1368 1368 1367 1366 1365 1374 1389 1397 1401 1408 1412 1415 1416 1417 1420 1420 1419 1419 1419 1421 1422 1434 1440 1445 1445 1443 1440 1438 1439 1441 1442 1444 1445 1447 1450 1453 1456 1457 1459 1462 1464 1465 1467 1469 1471 1472 1473 1474 1474 1474 1473 1472 1472 1470
1371 1371 1371 1372 1380 1390 1399 1404 1408 1411 1415 1418 1419 1421 1423 1425 1427 1428 1432 1432 1444 1450 1451 1451 1450 1448 1445 1444 1445 1445 1446 1447 1449 1451 1454 1456 1459 1460 1462 1463 1464 1465 1467 1469 1470 1471 1472 1472 1472 1471 1470 1469 1468 1466
1376 1376 1380 1386 1390 1401 1413 1411 1412 1415 1418 1422 1423 1426 1429 1431 1432 1434 1443 1453 1456 1458 1457 1455 1454 1453 1452 1452 1451 1451 1451 1452 1453 1455 1456 1458 1460 1462 1463 1464 1465 1466 1468 1469 1470 1470 1470 1470 1469 1468 1466 1465 1463 1462
1382 1386 1394 1400 1406 1414 1417 1418 1419 1421 1422 1423 1427 1432 1436 1435 1436 1442 1453 1462 1465 1462 1460 1459 1458 1457 1457 1456 1456 1457 1458 1458 1458 1459 1461 1462 1462 1464 1465 1466 1467 1468 1468 1469 1469 1469 1468 1467 1465 1464 1462 1460 1459 1458
1394 1412 1413 1417 1419 1420 1423 1425 1425 1426 1432 1429 1432 1437 1438 1438 1442 1451 1458 1467 1468 1466 1465 1464 1462 1461 1462 1462 1462 1462 1462 1462 1462 1463 1464 1465 1465 1466 1467 1467 1468 1468 1469 1469 1468 1466 1465 1463 1461 1460 1458 1457 1456 1455
1417 1428 1429 1429 1430 1429 1431 1433 1434 1434 1433 1438 1439 1440 1440 1441 1453 1463 1469 1473 1472 1470 1469 1468 1467 1466 1465 1465 1466 1465 1466 1466 1466 1466 1467 1468 1468 1468 1468 1468 1468 1468 1467 1466 1465 1463 1461 1459 1457 1456 1455 1454 1452 1450
1432 1438 1438 1437 1437 1436 1437 1436 1436 1438 1443 1445 1444 1443 1441 1453 1465 1472 1475 1475 1474 1473 1472 1471 1470 1469 1469 1469 1469 1469 1468 1468 1468 1469 1469 1469 1469 1469 1469 1469 1468 1467 1465 1463 1461 1459 1457 1456 1454 1452 1450 1449 1447 1446
1441 1443 1442 1444 1442 1441 1442 1443 1446 1450 1450 1452 1449 1456 1460 1467 1475 1478 1478 1478 1476 1475 1475 1474 1473 1472 1472 1472 1471 1471 1470 1470 1471 1470 1470 1469 1468 1468 1467 1466 1464 1462 1460 1458 1457 1455 1454 1452 1450 1448 1446 1445 1443 1442
1447 1446 1445 1444 1446 1449 1452 1452 1455 1458 1459 1456 1457 1464 1471 1476 1479 1479 1478 1478 1478 1477 1476 1476 1476 1475 1474 1474 1473 1472 1472 1472 1472 1471 1470 1470 1468 1467 1465 1464 1461 1460 1458 1456 1454 1453 1451 1449 1447 1445 1444 1442 1440 1439
1452 1450 1450 1450 1450 1456 1460 1460 1461 1463 1461 1460 1462 1470 1474 1477 1479 1479 1478 1478 1478 1478 1478 1477 1477 1477 1475 1475 1474 1474 1473 1473 1472 1472 1470 1469 1467 1465 1463 1460 1459 1457 1455 1453 1451 1449 1447 1445 1443 1442 1440 1438 1437 1435
1454 1453 1453 1455 1459 1462 1462 1463 1463 1464 1464 1465 1466 1468 1472 1478 1480 1481 1480 1480 1481 1480 1479 1478 1478 1477 1477 1476 1475 1474 1473 1472 1471 1470 1468 1466 1464 1461 1459 1457 1455 1453 1451 1449 1447 1445 1443 1441 1439 1438 1436 1434 1432 1430
1458 1458 1457 1458 1461 1463 1463 1463 1464 1464 1467 1469 1471 1473 1475 1477 1481 1484 1484 1483 1482 1481 1480 1480 1479 1478 1478 1477 1476 1474 1473 1471 1469 1467 1464 1462 1460 1457 1455 1453 1451 1449 1446 1444 1442 1440 1439 1436 1435 1433 1432 1430 1428 1426
1460 1460 1460 1461 1462 1462 1464 1463 1464 1467 1470 1472 1475 1476 1476 1479 1484 1486 1485 1484 1483 1482 1481 1480 1479 1478 1477 1476 1475 1473 1471 1469 1466 1464 1461 1458 1456 1453 1451 1449 1446 1444 1441 1439 1437 1435 1433 1432 1430 1429 1427 1425 1423 1421
Wind_Speed
37 37 36 36 35 35 32 32 31 36 35 33 33 35 38 39 37 31 45 38 15 6 18 9 35 22 16 18 6 9 7 2 4 2 4 2 3 4 4 8 8 6 6 3 3 2 5 9 5 6 6 14 15 14
30 30 31 33 35 35 34 34 34 37 35 34 32 34 34 33 37 34 31 40 29 20 11 10 19 22 30 32 26 18 12 11 17 4 3 4 2 2 3 2 2 2 6 6 7 6 6 20 25 22 20 18 14 13
26 28 29 31 33 34 34 34 34 38 37 33 30 35 28 35 29 36 36 26 24 15 27 24 4 14 26 23 26 17 11 19 6 9 5 3 3 4 3 3 3 2 4 4 5 1 11 22 23 18 15 15 12 10
24 26 29 30 32 32 32 31 32 34 33 30 30 30 33 33 26 33 39 35 24 8 3 8 9 21 33 37 36 28 16 14 19 17 6 3 3 5 4 4 4 5 5 6 4 13 22 19 18 17 15 14 11 8
23 26 28 28 29 29 28 28 29 30 29 29 28 26 30 27 26 31 30 43 40 20 3 10 20 15 18 21 20 21 22 26 16 6 4 2 5 5 2 3 1 1 4 4 4 9 17 13 19 15 14 16 11 7
20 21 23 25 26 28 29 30 30 32 32 30 30 26 26 25 29 19 9 32 39 35 9 4 7 12 10 11 16 6 11 13 9 7 3 4 3 4 3 3 2 17 18 13 7 16 23 21 15 11 13 12 11 11
23 25 25 28 30 33 33 30 26 30 33 30 30 33 28 35 36 33 12 5 10 15 6 3 1 5 9 15 21 20 10 9 7 6 4 4 3 4 3 3 11 18 18 18 21 26 20 11 12 12 14 15 16 19
18 21 19 16 15 16 19 19 19 29 28 27 29 31 29 25 31 42 17 2 8 7 9 4 1 3 4 5 4 6 5 5 9 5 3 3 3 3 3 8 20 19 20 16 13 9 21 22 17 18 17 19 22 23
21 23 24 23 24 24 25 27 32 34 36 32 30 28 28 28 16 13 14 15 18 9 6 3 4 3 2 5 4 5 6 4 3 2 2 4 1 2 5 16 18 20 13 26 22 23 24 22 22 19 21 22 21 18
36 22 19 22 25 28 31 33 34 37 42 41 32 14 4 6 16 5 4 4 7 8 7 2 2 2 4 3 3 3 2 3 2 2 3 3 2 10 15 18 15 17 22 19 28 24 23 24 23 21 19 19 17 13
43 41 32 25 25 28 29 32 35 42 46 20 4 5 20 18 7 5 5 5 4 4 4 3 2 3 3 3 3 2 2 0 3 3 4 1 2 4 10 11 14 13 14 12 15 20 22 25 25 21 17 13 12 11
37 41 34 39 34 33 34 38 44 32 11 7 19 22 10 4 3 6 3 3 4 2 2 3 5 4 4 4 4 2 3 2 2 5 3 3 1 16 14 13 13 17 19 22 22 23 21 20 19 16 15 15 13 12
29 26 26 30 30 35 42 33 13 25 38 27 7 5 3 6 6 4 2 2 2 2 1 3 3 3 4 5 6 2 4 1 7 3 3 2 12 17 18 23 25 28 28 28 27 24 22 20 15 14 17 13 11 10
22 22 20 18 21 22 23 20 31 29 12 6 6 6 4 4 4 3 2 2 2 3 12 13 5 3 3 3 1 4 0 2 3 3 3 4 17 23 21 24 29 27 24 22 19 18 17 16 17 16 13 10 7 6
18 17 17 17 12 8 6 10 9 7 8 8 8 5 4 3 6 4 5 4 5 7 9 7 5 3 1 3 2 3 2 3 3 3 2 15 23 22 24 26 26 25 22 17 19 18 16 15 14 15 11 8 5 4
18 19 22 18 15 8 5 9 6 14 8 7 9 4 4 3 4 7 9 9 5 6 4 3 2 3 3 3 2 2 5 3 2 2 15 25 21 24 27 26 24 20 17 18 18 17 15 12 11 10 8 4 2 4
20 27 16 13 13 12 13 19 10 10 7 5 5 11 8 10 6 4 4 5 5 3 1 2 4 2 1 2 2 3 2 2 8 14 21 23 29 26 23 24 19 20 18 18 18 16 13 12 10 6 4 5 2 5
22 17 15 11 14 14 20 14 8 7 7 11 4 10 16 12 9 13 10 10 4 3 3 2 2 4 4 3 2 2 6 14 17 22 25 25 24 24 26 26 23 19 17 16 14 14 14 11 8 6 3 2 3 6
15 14 13 13 8 8 7 8 8 6 8 5 10 12 13 18 22 19 15 15 16 12 6 6 5 4 3 5 4 13 14 17 21 25 25 23 24 25 23 20 18 16 15 14 13 12 12 10 7 4 1 3 6 9
14 13 16 13 6 7 7 7 7 7 5 4 9 13 8 11 19 24 23 21 21 9 8 4 3 7 6 9 12 15 16 18 21 23 20 19 20 19 19 18 16 16 17 15 11 8 7 5 2 2 5 7 9 10
11 15 13 13 24 15 9 6 7 6 6 5 8 6 7 18 19 20 18 18 16 8 5 10 17 20 20 18 17 15 13 13 17 19 23 22 18 19 17 14 13 14 13 11 12 11 8 5 3 5 8 9 10 9
14 10 11 14 10 8 9 11 5 5 5 4 5 6 5 5 6 13 19 16 8 12 9 14 13 15 20 23 21 17 17 18 17 17 15 15 14 14 12 13 14 14 12 9 6 4 2 3 5 6 8 11 11 10
11 10 10 11 8 8 4 8 5 5 3 2 3 3 4 4 6 6 7 8 11 18 14 12 11 12 14 14 15 17 15 16 18 17 15 14 13 13 12 11 8 8 7 5 2 2 4 6 8 10 12 12 12 11
12 9 9 8 10 4 4 5 5 4 4 3 3 3 3 4 5 7 3 5 13 16 18 18 9 13 13 15 17 17 14 11 14 13 8 7 8 7 7 8 7 5 3 1 2 4 6 8 11 12 13 13 11 11
8 12 8 7 10 6 4 4 6 4 3 4 3 3 2 3 3 3 3 5 14 14 19 14 12 13 14 13 12 12 10 8 7 9 10 8 6 6 6 6 5 4 1 3 6 8 10 12 13 13 13 12 11 11
8 12 6 9 6 5 4 3 4 4 2 3 3 1 3 3 5 4 3 8 11 12 12 14 11 9 11 10 9 8 8 7 6 5 8 8 8 6 4 1 3 4 8 11 13 13 13 14 14 14 12 9 8 12
6 7 9 9 5 2 3 4 5 6 5 5 3 4 2 4 4 4 6 10 8 9 8 7 7 9 10 11 11 10 8 5 6 9 8 6 4 2 1 3 5 8 11 12 13 14 14 14 13 13 12 11 12 15
6 7 5 10 9 13 4 4 4 5 4 10 6 6 3 4 4 4 5 6 5 8 10 11 10 8 5 5 4 4 4 8 8 7 5 6 8 9 12 15 15 16 16 16 16 15 14 14 15 15 14 13 12 11
6 8 4 7 6 7 10 7 5 5 8 6 4 3 4 6 10 8 6 3 5 3 4 9 8 9 10 11 9 9 6 5 3 3 3 2 7 12 16 15 14 14 16 16 14 14 13 14 14 16 16 10 11 11
8 11 3 6 5 4 6 7 8 7 9 8 9 12 15 10 9 5 5 7 9 9 7 4 3 3 6 5 7 6 6 8 9 9 9 11 13 14 13 14 16 18 17 17 16 15 14 14 14 13 12 10 10 13
5 7 4 5 5 4 3 5 9 10 12 15 11 12 11 9 10 10 10 10 6 8 4 7 6 5 4 3 4 6 10 13 14 14 14 15 15 15 16 16 17 16 16 14 15 17 16 15 13 13 16 16 14 15
6 7 5 3 4 4 4 4 2 4 5 8 7 7 7 6 5 4 6 4 4 4 3 3 5 6 6 7 9 11 12 14 16 19 20 19 18 17 16 15 15 16 16 17 17 18 18 17 14 12 16 19 20 20
3 6 7 4 3 2 5 3 3 4 6 4 5 9 7 5 4 3 6 6 7 8 8 7 6 8 11 11 14 14 15 16 18 19 19 20 19 17 16 17 18 18 17 16 15 14 13 10 10 13 17 20 21 18
Wind_Direction
164 172 180 184 186 188 191 187 183 177 175 173 181 184 189 189 185 203 213 219 210 275 285 260 201 194 166 163 143 156 90 303 270 100 122 207 110 222 117 158 167 158 139 190 99 104 278 172 109 129 172 87 74 64
163 170 176 179 181 182 182 183 184 181 180 182 186 191 192 192 194 198 213 222 216 241 279 340 196 205 205 182 137 154 131 151 222 101 68 83 60 36 121 182 179 128 172 173 160 207 215 96 100 96 99 78 57 61
165 168 170 171 174 179 178 179 180 185 189 191 193 190 197 194 214 207 207 210 207 250 280 265 151 168 186 204 206 152 169 200 201 118 136 119 128 129 131 244 112 94 138 109 85 326 95 89 94 95 93 83 80 84
156 161 165 167 172 176 179 183 187 190 192 198 199 206 199 206 213 204 206 208 195 171 324 268 148 150 150 171 167 153 145 196 146 132 94 122 132 170 207 195 126 202 120 148 111 112 85 71 87 107 106 94 98 96
151 159 163 167 171 175 179 182 189 194 199 205 209 204 204 217 209 208 217 217 208 206 220 199 98 99 151 161 150 162 180 153 131 91 86 152 150 95 323 73 67 115 172 137 198 104 111 99 104 122 116 106 110 109
155 160 163 167 174 179 184 189 192 200 206 213 209 196 179 175 180 163 214 224 237 224 264 43 59 76 116 154 153 126 152 131 115 103 99 91 108 127 109 127 85 100 90 129 125 132 129 130 123 118 118 118 109 105
177 179 181 189 193 195 204 201 185 180 173 178 181 171 170 172 174 173 197 256 233 178 178 74 47 114 115 115 107 108 168 85 96 93 72 127 95 91 111 128 141 112 111 102 126 128 116 141 122 117 119 113 112 106
115 119 135 166 187 196 194 175 167 151 152 166 158 151 157 165 180 207 267 37 111 118 81 94 12 37 34 49 64 49 86 67 46 86 69 82 45 40 78 109 124 122 114 108 135 175 141 127 121 113 118 119 110 103
130 136 126 123 126 135 143 144 144 144 144 137 140 147 172 174 197 172 116 79 76 85 106 89 124 172 109 60 58 48 45 66 74 96 107 90 177 83 151 126 126 137 134 123 119 120 128 125 123 123 118 113 111 112
87 115 121 133 139 141 141 140 139 134 135 130 146 170 108 82 123 72 56 66 45 48 57 79 106 139 122 114 77 104 38 144 97 243 109 78 82 92 97 122 127 126 142 148 127 126 131 128 132 128 123 126 126 126
73 77 92 114 128 130 133 129 130 133 130 136 92 63 112 112 57 43 56 59 20 43 67 53 113 130 76 111 144 81 163 90 96 239 117 110 148 153 144 134 141 156 154 142 148 142 141 145 141 137 135 134 133 127
76 73 86 96 109 119 129 131 132 132 120 115 119 109 85 78 18 76 47 4 54 118 36 86 45 71 69 106 106 89 104 45 108 154 90 164 116 150 152 150 150 154 146 139 142 138 142 139 144 147 138 132 124 118
81 80 80 90 113 116 125 130 139 134 123 121 107 92 74 355 51 69 92 27 67 40 67 115 60 54 60 75 76 90 70 179 110 130 161 118 140 148 137 131 128 133 136 135 134 141 145 141 143 141 136 131 125 119
76 90 93 115 98 100 96 124 139 139 148 63 49 53 46 39 41 23 17 45 52 63 110 87 63 72 70 55 93 86 307 125 154 165 212 142 146 147 137 135 133 129 135 140 144 146 142 141 136 137 138 132 126 106
78 83 103 106 131 120 117 103 105 171 58 61 37 52 53 83 52 34 49 67 72 97 98 90 69 92 27 92 61 109 97 151 187 190 109 150 151 149 139 143 138 139 139 140 142 139 139 140 139 133 129 124 102 67
96 98 83 82 102 116 102 174 72 48 57 54 46 60 38 63 30 37 57 53 62 95 100 121 124 75 50 107 104 114 136 155 111 70 139 151 146 141 145 142 140 145 142 147 148 145 144 139 132 127 118 104 56 0
86 71 76 86 87 109 130 114 80 48 51 48 36 45 77 72 62 47 55 33 60 85 57 32 59 66 108 69 68 19 57 63 109 127 141 146 141 140 149 138 152 154 149 149 147 152 148 139 136 147 118 93 9 332
68 56 61 100 104 116 83 60 76 68 63 46 61 36 65 72 58 46 38 43 58 74 49 63 69 49 29 43 64 84 88 111 125 124 135 143 139 137 140 151 152 152 149 147 147 139 135 148 162 170 171 147 246 307
60 47 42 52 94 103 65 50 50 82 60 55 53 60 60 59 60 60 60 67 70 80 74 44 39 26 29 7 61 107 118 118 115 120 130 142 146 148 155 159 158 153 143 144 153 155 166 183 195 205 252 314 319 324
48 39 32 34 70 77 72 49 57 77 67 63 64 56 57 54 57 56 51 51 55 54 45 45 28 8 2 34 114 128 126 133 134 126 123 132 145 151 148 152 153 155 154 159 155 151 173 182 222 298 315 324 326 323
58 51 45 53 57 67 77 55 63 75 83 68 63 65 71 53 48 45 41 51 54 35 57 61 61 61 67 96 119 122 123 131 133 138 136 132 139 145 145 145 150 150 155 158 173 175 202 235 291 313 315 317 319 317
54 59 55 50 66 64 60 37 72 85 74 88 43 52 58 44 41 43 49 48 57 37 44 56 61 69 72 72 76 91 112 130 136 138 140 145 138 136 137 151 163 162 165 165 182 207 244 290 300 309 312 310 320 312
58 52 50 37 68 53 27 31 52 38 71 68 51 57 34 56 26 61 75 43 48 41 46 54 60 64 75 79 86 83 93 114 118 125 136 142 143 144 148 153 162 162 151 141 165 250 280 304 317 314 311 317 317 306
48 49 35 39 46 71 50 33 41 47 51 42 49 61 29 20 37 72 70 61 30 49 50 47 88 51 67 78 77 77 72 90 107 107 111 138 138 130 148 151 152 141 128 125 276 292 304 309 311 313 316 318 315 312
61 18 29 18 22 30 50 30 5 36 51 19 63 39 358 11 64 62 55 64 24 37 48 55 60 71 69 66 72 72 76 83 106 110 99 87 84 96 95 89 87 87 69 308 318 317 312 313 315 316 317 320 320 321
66 29 38 15 21 32 7 61 17 353 23 63 56 31 325 63 59 53 55 38 32 30 42 55 49 54 62 58 63 70 66 65 74 109 118 121 131 122 108 25 326 333 324 324 323 321 317 316 314 313 313 314 313 306
50 37 21 20 357 64 67 39 53 57 42 26 355 345 0 67 67 77 68 32 34 24 40 57 65 68 67 63 63 67 76 66 57 77 80 76 75 76 6 322 313 319 318 316 316 318 320 319 316 318 311 297 291 293
61 40 28 19 33 36 31 39 37 33 24 347 352 29 62 40 53 58 60 32 359 32 45 55 56 58 60 56 63 69 73 80 62 51 38 26 14 2 355 346 338 331 333 331 331 331 329 327 327 324 323 322 331 333
32 19 27 29 68 56 24 22 58 48 354 355 36 55 77 77 70 94 69 97 113 87 61 76 59 28 37 42 65 76 88 87 100 124 101 35 314 323 326 328 325 327 325 318 318 315 314 313 311 306 313 316 326 336
11 14 15 45 49 60 36 45 93 76 59 74 103 101 96 97 87 99 97 80 59 51 59 66 101 128 85 33 32 48 48 31 18 6 354 340 329 325 321 317 314 316 317 317 316 316 315 310 309 320 321 308 297 292
8 7 45 58 71 52 71 114 111 84 80 75 86 118 129 118 94 72 66 59 97 103 59 35 47 61 82 59 33 5 346 344 344 348 341 336 327 321 318 316 314 313 309 307 309 313 316 320 321 313 315 315 305 300
31 19 14 56 103 77 98 56 93 84 106 80 91 101 122 108 83 74 47 15 25 74 56 14 25 40 20 7 0 349 338 333 338 335 331 332 328 325 324 320 316 314 313 310 304 304 306 303 306 311 305 306 309 303
84 56 45 44 60 69 22 18 116 82 67 74 63 51 52 81 86 70 356 12 32 28 15 7 3 1 346 346 338 332 333 329 324 324 324 322 324 327 325 325 323 321 317 314 313 313 311 305 305 306 303 307 312 314